This is the latest recevied weather packets stored in our database for station/object HG8LXL-2. If no packets are shown the sender has not sent any weather packets the latest 10 day(s).
| Time | Temp. | Humidity | Pressure | Rain* | Wind** | Luminosity | Snow |
|---|---|---|---|---|---|---|---|
| 1777534199 | 15° C | 22% | 1024 hPa | - | - | - | - |
| 1777533899 | 13.89° C | 22% | 1024 hPa | - | - | - | - |
| 1777533599 | 13.33° C | 23% | 1024 hPa | - | - | - | - |
| 1777533299 | 14.44° C | 23% | 1024 hPa | - | - | - | - |
| 1777532999 | 14.44° C | 22% | 1024 hPa | - | - | - | - |
| 1777532699 | 13.33° C | 23% | 1024 hPa | - | - | - | - |
| 1777532399 | 13.33° C | 23% | 1024 hPa | - | - | - | - |
| 1777532099 | 13.33° C | 24% | 1024 hPa | - | - | - | - |
| 1777531799 | 12.78° C | 25% | 1023.9 hPa | - | - | - | - |
| 1777531499 | 12.22° C | 25% | 1023.9 hPa | - | - | - | - |
| 1777531199 | 12.22° C | 26% | 1024.1 hPa | - | - | - | - |
| 1777530899 | 13.33° C | 24% | 1023.9 hPa | - | - | - | - |
| 1777530599 | 11.67° C | 26% | 1023.9 hPa | - | - | - | - |
| 1777530299 | 11.67° C | 26% | 1024 hPa | - | - | - | - |
| 1777529999 | 12.78° C | 26% | 1023.9 hPa | - | - | - | - |
| 1777529699 | 12.22° C | 26% | 1023.9 hPa | - | - | - | - |
| 1777529399 | 11.11° C | 27% | 1023.9 hPa | - | - | - | - |
| 1777529099 | 11.11° C | 28% | 1023.9 hPa | - | - | - | - |
| 1777528799 | 11.11° C | 27% | 1023.8 hPa | - | - | - | - |
| 1777528499 | 11.67° C | 27% | 1023.7 hPa | - | - | - | - |
| 1777528199 | 11.67° C | 27% | 1023.7 hPa | - | - | - | - |
| 1777527899 | 11.11° C | 27% | 1023.7 hPa | - | - | - | - |
| 1777527599 | 11.11° C | 28% | 1023.7 hPa | - | - | - | - |
| 1777527299 | 10° C | 28% | 1023.8 hPa | - | - | - | - |
| 1777526999 | 10.56° C | 29% | 1023.7 hPa | - | - | - | - |
* Rain since midnight (hover to see other rain measurements)
** Current wind speed in m/s (hover to see current wind gust speed)